Regional Weather Roundup
Issued by NWS

Home | Current Version | Previous Version | Graphics & Text | Print | Product List | Glossary On
Versions: 1 2 3 4 5 6 7 8 9 10 11 12 13 14 15 16 17 18 19 20 21 22 23 24 25 26 27 28 29 30 31 32 33 34 35 36 37 38 39 40 41 42 43 44 45 46 47 48 49 50
000
ASUS43 KOAX 180610
RWRNE

WEATHER ROUNDUP FOR NEBRASKA
NATIONAL WEATHER SERVICE OMAHA NE
100 AM CDT FRI AUG 18 2017

NOTES: SATELLITE DATA IS BEING USED TO AUGMENT CLOUD COVER ABOVE
       12000 FEET.
       "FAIR" INDICATES FEW OR NO CLOUDS BELOW 12,000 FEET WITH NO
       SIGNIFICANT WEATHER AND/OR OBSTRUCTIONS TO VISIBILITY.


NEZ001>004-019>022-054>056-180700-
NEBRASKA PANHANDLE

CITY           SKY/WX    TMP DP  RH WIND       PRES   REMARKS
SCOTTSBLUFF    CLEAR     59  50  72 NW7       30.09R
6HR MIN TEMP:  59; 6HR MAX TEMP:  88;

ALLIANCE       CLEAR     53  49  86 MISG      30.06R
6HR MIN TEMP:  53; 6HR MAX TEMP:  85; 6HR PCP: TRACE;

CHADRON        CLEAR     55  51  86 SW8       30.03R
6HR MIN TEMP:  55; 6HR MAX TEMP:  83; 6HR PCP:  0.10;

GORDON         FAIR      53  49  89 CALM      30.03R
6HR MIN TEMP:  53; 6HR MAX TEMP:  87; 6HR PCP:  0.01;

KIMBALL        CLEAR     55  51  85 NW5       30.13S
SIDNEY         CLEAR     56  49  77 W8        30.10R
6HR MIN TEMP:  56; 6HR MAX TEMP:  85;

$$

NEZ057>060-069>072-079>082-180700-
SOUTHWEST NEBRASKA

CITY           SKY/WX    TMP DP  RH WIND       PRES   REMARKS
NORTH PLATTE   CLOUDY    66  55  67 E9        30.01R
6HR MIN TEMP:  64; 6HR MAX TEMP:  83; 6HR PCP: TRACE;

IMPERIAL       CLEAR     64  54  69 S8        30.01R
6HR MIN TEMP:  61; 6HR MAX TEMP:  70; 6HR PCP:  0.07;

LEXINGTON      CLOUDY    68  58  71 W3        29.97R
MCCOOK         CLEAR     65  58  78 SW13      29.98R
6HR MIN TEMP:  65; 6HR MAX TEMP:  86; 6HR PCP: TRACE;

OGALLALA       CLOUDY    64  58  82 CALM      30.01S
$$

NEZ005>010-023>029-035>040-094-180700-
NORTH CENTRAL NEBRASKA

CITY           SKY/WX    TMP DP  RH WIND       PRES   REMARKS
VALENTINE      CLOUDY    63  56  78 SW5       29.95S
6HR MIN TEMP:  63; 6HR MAX TEMP:  91; 6HR PCP:  0.20;

AINSWORTH      CLOUDY    60  59  96 SW9       29.97R
BROKEN BOW     CLOUDY    67  56  67 NE5       29.98F
6HR MIN TEMP:  67; 6HR MAX TEMP:  85;

O`NEILL        RAIN      63  63 100 E6        29.99F
ORD            LGT RAIN  64  58  80 NE10      29.97F
6HR MIN TEMP:  63; 6HR MAX TEMP:  83; 6HR PCP:  0.05;

THEDFORD       PTCLDY    61  59  92 SE6       29.99F
$$

NEZ041-046>049-061>064-073>077-083>087-180700-
SOUTH CENTRAL NEBRASKA

CITY           SKY/WX    TMP DP  RH WIND       PRES   REMARKS
GRAND ISLAND   CLOUDY    70  61  73 S8        29.95R
6HR MIN TEMP:  69; 6HR MAX TEMP:  83;

AURORA         CLOUDY    69  61  74 S8        29.95R
HASTINGS       CLOUDY    71  57  61 S7        29.97R
6HR MIN TEMP:  70; 6HR MAX TEMP:  82;

HEBRON         MOCLDY    70  61  72 S8        29.95R
HOLDREGE       CLOUDY    66  58  75 SE5       29.94S
KEARNEY        CLOUDY    68  59  73 S8        29.94S
YORK           CLOUDY    66  63  88 S7        29.95R
$$

NEZ011>018-030>034-042>045-180700-
NORTHEAST NEBRASKA

CITY           SKY/WX    TMP DP  RH WIND       PRES   REMARKS
NORFOLK        CLOUDY    67  63  87 W16       29.97R
6HR MIN TEMP:  64; 6HR MAX TEMP:  80;

ALBION         RAIN      65  61  86 NW23G31   30.03R
BLAIR          HVY RAIN  67  63  85 S5        29.95R
COLUMBUS       CLEAR     63  61  93 SE3       29.93S
FREMONT        CLEAR     64  62  93 SE6       29.94S
TEKAMAH        CLEAR     62  60  93 S3        29.92R
6HR MIN TEMP:  62; 6HR MAX TEMP:  80;

WAYNE          MOCLDY    66  64  91 S7        29.91S THUNDER
$$

NEZ050>053-065>068-078-088>093-180700-
SOUTHEAST NEBRASKA

CITY           SKY/WX    TMP DP  RH WIND       PRES   REMARKS
LINCOLN        CLEAR     67  62  84 CALM      29.95R
6HR MIN TEMP:  67; 6HR MAX TEMP:  83;

OMAHA EPPLEY   CLEAR     65  61  87 CALM      29.94R
6HR MIN TEMP:  65; 6HR MAX TEMP:  82;

BEATRICE       CLOUDY    67  60  79 S7        29.96R
FALLS CITY     CLOUDY    64  60  87 CALM      29.95R
6HR MIN TEMP:  62; 6HR MAX TEMP:  82;

NEBRASKA CITY  CLEAR     65  62  93 SW5       29.96R
PLATTSMOUTH    CLEAR     68  60  74 S5        29.96R
$$

NEZ044-045-051>053-067-180700-
OMAHA AREA

CITY           SKY/WX    TMP DP  RH WIND       PRES   REMARKS
OMAHA EPPLEY   CLEAR     65  61  87 CALM      29.94R
6HR MIN TEMP:  65; 6HR MAX TEMP:  82;

BLAIR          HVY RAIN  67  63  85 S5        29.95R
FREMONT        CLEAR     64  62  93 SE6       29.94S
MILLARD        CLEAR     66  65  94 CALM      29.95R
OFFUTT AFB     CLEAR     60  59  96 CALM      29.94R
PLATTSMOUTH    CLEAR     68  60  74 S5        29.96R
WAHOO          FAIR      62  61  96 SE5       29.94S
$$




USA.gov is the U.S. government's official web portal to all federal, state and local government web resources and services.